Theta_e
322 314 314 312 301 298 294 297 301 302 303 308 313 314 315 317 315 308 329 335 333 337 344 345 347 346 345 348 348 348 347 348 346 345 345 345 346 345 342 342 340 337 338 337 337 338 339 339 339
319 316 313 307 298 294 293 298 302 306 310 313 313 314 316 314 323 323 330 337 341 342 342 343 344 346 345 348 348 347 347 347 345 344 343 345 344 344 342 341 339 337 337 337 337 338 338 337 338
319 316 306 302 298 291 293 302 305 307 310 310 308 317 317 317 323 325 336 339 339 338 341 341 343 345 345 346 345 345 344 345 344 342 343 344 344 343 344 341 337 337 336 336 337 337 336 337 336
313 311 307 300 297 296 298 304 305 304 306 309 313 314 320 326 325 329 338 338 338 339 340 341 344 345 344 342 342 339 341 342 341 341 338 343 343 344 343 341 338 336 335 335 336 335 334 333 333
313 306 299 297 298 295 302 308 307 304 303 306 310 310 317 326 331 335 336 336 334 335 338 340 342 344 343 342 337 338 340 340 339 340 342 341 340 341 341 340 337 335 335 334 334 333 330 330 331
308 305 297 295 301 297 302 308 307 304 305 306 314 315 317 328 331 333 335 333 334 333 336 338 335 338 340 341 339 339 338 339 338 339 339 339 339 340 340 339 337 335 334 333 331 330 328 329 330
307 302 298 298 300 298 303 308 305 305 305 303 318 313 319 326 330 332 333 333 334 333 333 333 335 336 334 335 335 335 337 335 334 338 337 335 336 337 338 338 336 335 334 332 331 330 329 329 329
308 305 298 298 298 297 305 305 306 306 306 312 317 312 316 326 330 331 333 333 332 331 331 331 332 334 332 331 330 331 332 334 334 333 330 329 329 332 333 332 335 334 333 332 330 330 329 328 328
314 302 300 298 300 300 305 302 305 308 309 310 315 317 322 328 329 328 327 328 330 330 329 330 330 331 331 330 327 328 329 330 329 328 326 324 324 327 328 329 332 333 332 330 329 329 327 327 325
307 299 301 305 306 302 306 303 304 305 306 307 318 324 327 327 325 325 323 324 325 326 327 329 327 329 331 332 328 326 327 326 325 324 324 324 324 326 327 324 327 329 328 329 329 328 327 323 319
305 301 308 305 304 305 305 301 304 303 301 307 315 321 323 323 323 324 323 324 324 327 329 330 327 327 327 329 327 325 324 324 324 324 323 324 323 322 322 320 321 319 320 320 322 321 320 319 318
304 308 309 306 305 302 304 303 301 300 301 306 323 324 323 324 324 324 322 324 323 324 327 330 330 326 323 327 326 326 325 324 324 325 325 321 320 319 318 318 318 318 319 318 318 317 317 316 317
307 310 308 303 303 302 303 300 300 298 302 311 325 325 322 323 324 323 324 324 324 323 324 329 330 330 326 324 325 326 324 324 324 325 326 323 321 320 319 319 319 319 319 317 316 317 316 316 316
311 311 303 302 303 303 302 301 302 303 301 309 322 322 321 322 324 323 324 324 322 324 324 326 329 330 329 326 325 325 324 323 323 323 324 326 324 323 321 319 318 317 317 318 317 316 316 316 316
310 304 301 301 301 301 302 299 300 303 302 303 307 317 322 322 324 325 325 325 323 325 326 325 328 330 330 327 326 326 324 324 321 322 324 324 325 324 322 320 318 318 317 317 318 318 317 316 316
305 303 295 302 301 301 302 296 303 306 304 302 302 303 317 320 324 326 327 325 324 323 325 326 329 330 329 329 328 327 326 322 322 322 322 322 323 324 321 320 319 319 318 319 318 318 316 316 316
303 297 295 301 302 300 300 297 305 308 304 304 303 302 306 314 318 324 325 324 323 323 325 325 326 328 329 329 329 328 326 325 324 322 323 321 322 324 321 320 320 320 320 319 319 318 317 316 315
295 297 298 299 299 298 295 298 302 301 304 304 303 303 303 306 315 320 323 323 324 324 325 325 326 326 328 329 327 325 325 325 325 324 323 323 323 323 322 321 320 320 319 319 319 317 317 317 316
301 299 298 302 303 299 296 295 299 302 300 300 300 302 302 304 312 317 322 323 323 323 323 323 324 325 325 325 324 324 324 325 326 326 325 324 324 324 323 322 321 319 319 319 319 318 317 316 315
303 300 299 298 299 298 296 296 299 301 301 301 301 301 302 303 303 312 316 320 321 322 322 322 323 324 325 326 326 326 325 324 326 326 325 325 325 325 324 323 322 320 318 318 319 321 317 318 315
300 300 298 297 296 295 293 291 295 299 302 302 304 304 303 304 305 304 312 317 319 320 322 324 323 324 325 326 326 323 322 321 321 322 324 325 325 325 325 324 323 321 320 319 317 316 315 313 313
296 302 298 294 291 288 292 284 289 294 296 299 303 301 303 304 306 306 306 314 318 321 323 325 326 324 324 325 324 323 322 320 323 323 325 325 326 325 326 325 324 322 320 318 317 317 316 313 311
299 302 297 295 290 288 287 285 288 292 292 295 298 301 303 303 306 307 307 309 316 320 321 324 326 326 325 324 324 323 322 323 323 324 324 324 326 326 326 325 324 322 320 319 318 315 314 315 313
303 296 294 293 289 283 287 287 285 290 294 295 296 300 301 301 301 304 306 307 310 315 319 322 323 325 326 325 324 323 322 322 321 321 322 324 325 326 326 326 325 324 322 320 318 318 317 317 318
300 294 282 283 283 281 287 286 289 293 295 295 294 296 298 298 298 299 300 302 304 311 315 318 321 323 325 326 325 324 323 323 322 322 323 324 324 325 325 326 325 324 323 322 321 319 318 317 317
294 293 282 277 279 279 283 282 287 297 300 299 299 297 295 296 296 296 297 298 301 303 312 317 318 322 322 324 326 326 325 325 324 324 326 326 326 326 327 325 326 325 324 323 322 320 318 317 317
293 290 291 282 274 277 281 286 292 295 294 294 295 295 295 294 296 295 299 296 296 299 303 313 315 318 320 321 324 326 327 326 326 326 327 327 328 328 327 326 325 325 324 323 322 321 318 317 317
295 296 288 286 276 273 280 281 284 289 293 294 294 294 294 294 294 295 295 296 296 296 298 300 307 313 315 316 318 323 325 327 328 328 327 327 327 327 327 325 324 324 323 323 321 321 319 315 314
289 291 289 288 283 278 276 281 290 292 295 295 294 294 293 293 294 295 296 296 297 297 298 298 298 299 300 303 307 312 316 321 323 326 327 327 327 325 325 325 324 322 321 321 321 318 312 312 308
292 293 293 287 283 284 283 282 292 294 295 294 291 292 292 294 295 294 295 296 296 297 297 298 298 298 299 299 300 301 304 310 316 322 325 325 324 322 324 325 324 322 321 319 318 311 310 309 304
Wind_Speed
8 9 0 5 5 5 1 2 5 5 4 2 2 7 9 4 4 7 5 13 14 9 6 7 10 12 12 11 11 13 14 15 16 16 17 16 16 17 18 19 17 17 18 17 17 17 18 18 17
6 6 5 2 5 4 4 3 8 5 4 6 7 5 6 4 3 6 8 13 14 12 7 7 11 11 11 10 10 13 13 14 15 16 15 15 15 15 18 19 17 17 18 18 18 17 17 16 15
6 1 3 3 3 1 3 3 7 3 4 3 4 6 4 3 3 5 15 16 13 11 9 8 10 11 10 11 11 12 12 12 13 14 13 16 18 17 19 20 15 18 17 17 17 16 14 14 14
4 5 5 3 2 4 6 7 8 4 5 5 5 7 4 3 5 8 15 17 14 12 10 9 10 11 11 10 10 11 10 12 13 13 15 12 16 17 18 19 18 17 16 16 16 15 13 12 13
3 3 2 1 3 2 4 8 8 4 5 3 4 1 4 4 9 14 15 15 14 10 8 7 11 10 12 12 13 14 13 12 11 10 13 15 16 14 14 19 17 15 15 15 14 13 11 11 12
3 3 2 2 1 0 3 8 8 5 4 5 7 6 1 5 12 10 11 13 14 12 8 6 8 9 12 12 13 12 14 11 12 11 11 13 12 14 14 18 16 14 14 14 13 12 12 11 11
3 3 4 2 3 2 4 7 7 8 7 3 10 5 4 4 7 9 9 13 14 13 10 6 5 10 10 11 11 11 12 12 11 12 12 11 9 12 13 16 13 13 12 12 12 11 10 9 9
3 3 2 3 2 3 5 4 5 8 2 3 7 6 7 6 7 7 8 13 12 12 11 7 6 6 7 6 12 10 11 11 11 11 10 8 11 10 13 12 11 11 11 10 10 9 8 7 7
1 2 4 5 3 4 4 4 2 3 7 5 4 5 7 12 8 6 5 8 8 9 12 10 7 6 5 6 7 9 10 12 10 11 12 9 4 5 6 9 10 10 9 9 8 7 5 3 4
2 3 5 4 7 7 6 5 6 5 6 5 5 8 11 10 7 7 7 10 8 8 11 10 9 8 7 5 5 4 6 5 5 5 6 3 5 5 6 6 8 7 6 6 6 6 4 2 2
4 5 2 1 3 6 7 4 1 8 3 8 11 14 10 9 7 7 6 9 8 9 9 10 11 10 7 6 4 3 2 2 3 6 5 4 5 4 4 3 3 3 3 1 1 1 1 3 3
2 6 3 2 3 4 7 7 2 4 4 7 19 20 15 14 12 10 9 8 8 9 8 8 10 11 8 6 5 5 4 3 3 5 6 5 4 4 4 3 4 4 3 4 3 2 2 2 2
3 4 6 5 4 3 4 5 5 3 5 9 15 17 16 15 13 6 7 7 7 7 8 7 8 10 8 9 6 6 6 5 5 4 5 4 4 4 4 4 4 4 3 3 3 3 2 2 2
5 3 6 5 4 2 3 2 3 4 7 11 16 15 15 17 18 9 11 10 11 11 9 7 6 8 8 6 7 7 5 6 5 5 5 7 5 5 5 5 5 4 4 4 4 4 4 3 3
4 5 0 4 6 3 2 5 5 3 7 10 12 11 14 15 15 17 16 15 13 14 13 12 9 7 9 7 5 4 6 6 5 5 7 7 5 6 6 5 4 5 4 5 4 4 3 3 2
3 5 5 5 8 4 7 5 9 10 7 8 9 10 14 16 20 17 15 15 13 13 16 13 10 11 11 10 6 5 4 4 5 7 6 7 6 6 5 4 4 4 4 4 3 3 3 3 4
4 8 6 2 13 5 6 5 9 7 10 10 9 10 10 13 13 17 18 16 15 15 15 14 13 14 13 11 8 7 6 5 4 4 6 8 8 7 6 5 5 6 4 4 3 3 3 3 3
8 5 7 7 10 6 6 7 5 2 6 9 9 8 9 9 18 16 17 15 15 16 16 15 13 11 13 9 7 3 4 4 4 6 7 10 7 7 6 5 6 5 4 4 4 5 3 3 3
11 7 12 10 8 8 12 7 13 9 7 6 8 8 8 11 14 12 15 14 14 14 15 15 15 14 10 8 9 8 10 9 7 7 8 11 9 9 8 5 6 6 6 6 6 4 4 3 2
12 16 9 4 3 5 6 9 10 10 8 10 12 12 10 6 7 11 12 13 13 15 15 15 16 15 13 10 10 7 9 7 9 8 7 10 11 11 9 8 7 8 5 6 6 5 3 3 4
9 14 9 6 1 1 3 7 7 9 11 8 14 11 10 12 10 9 11 14 13 14 16 17 17 17 15 14 9 4 3 1 4 6 8 9 12 13 13 11 9 9 7 7 6 6 7 5 4
13 7 6 17 7 5 5 7 5 4 9 11 15 9 10 11 9 8 10 12 14 16 15 17 16 16 15 15 11 13 11 11 10 11 10 10 12 13 13 13 12 10 8 8 7 6 6 5 5
5 9 6 5 4 5 2 2 8 4 5 7 11 13 15 11 11 11 11 11 13 14 15 16 16 14 17 17 16 12 14 10 7 9 11 11 11 13 13 13 12 11 8 10 9 6 6 5 4
10 10 6 4 3 2 7 7 6 5 9 5 6 11 12 10 11 10 9 8 9 7 9 11 13 15 15 18 19 19 19 14 10 10 10 9 9 9 12 13 12 12 10 11 10 10 10 9 8
14 15 2 2 2 7 5 6 8 5 6 6 3 8 10 8 7 9 8 6 7 9 10 8 11 16 13 16 18 19 19 17 16 14 11 11 9 9 13 13 13 11 13 12 10 10 10 10 9
15 15 8 8 6 4 6 9 8 15 11 7 7 6 4 6 5 6 7 5 6 8 9 11 10 14 9 10 14 15 18 12 12 13 12 10 11 12 14 15 16 16 15 13 12 8 9 9 9
14 10 7 8 5 3 6 6 9 8 7 7 7 5 7 4 4 4 3 2 3 4 8 9 8 11 10 11 12 13 13 16 15 17 13 12 14 13 15 17 17 17 17 16 14 11 12 10 11
14 10 6 3 5 4 4 5 7 7 11 8 7 8 7 3 6 4 2 2 1 2 3 6 7 9 9 7 7 10 12 12 15 13 14 15 14 14 14 15 16 16 17 16 15 13 11 11 7
9 13 4 7 6 6 3 8 9 12 17 15 7 8 9 10 8 5 5 3 3 3 3 4 5 7 8 6 6 6 7 8 8 13 15 15 14 13 14 16 16 16 15 14 15 13 11 12 10
3 15 13 11 10 4 3 7 4 10 10 9 10 9 8 9 8 7 7 6 5 5 5 6 5 6 6 6 6 8 7 7 7 11 13 11 12 10 13 14 16 16 17 15 16 15 13 15 14
Wind_Direction
321 310 320 33 45 69 219 63 132 86 51 66 58 73 108 44 36 126 108 122 128 120 119 114 103 97 94 97 109 105 99 96 95 94 94 96 100 91 87 86 87 82 78 79 79 79 82 78 72
322 324 31 52 80 31 299 90 91 103 128 88 55 115 40 72 65 106 110 131 117 120 117 106 102 97 96 95 99 110 104 104 105 101 99 97 95 100 93 91 82 87 82 79 82 82 79 74 63
302 196 60 75 95 151 146 137 140 105 82 93 92 58 78 77 75 109 127 121 120 112 106 112 108 103 102 110 108 107 94 101 105 113 107 106 97 95 95 92 91 82 80 80 84 84 79 74 63
351 5 10 77 284 314 135 162 131 100 22 45 105 68 62 259 138 133 119 110 106 109 112 113 119 114 103 101 104 104 96 94 105 108 110 105 89 85 92 98 93 84 82 82 87 84 78 68 59
23 55 30 1 296 175 105 148 126 116 134 48 91 44 79 12 111 116 120 118 114 109 104 113 118 124 111 100 115 111 109 97 110 99 92 87 92 90 90 99 97 92 86 85 88 87 76 67 58
358 108 76 230 275 322 118 153 123 113 118 117 77 102 43 146 113 131 122 117 124 123 110 106 117 120 110 113 111 105 114 101 106 99 85 78 88 109 98 101 100 97 94 91 90 86 80 73 63
145 107 212 237 212 218 155 123 132 146 135 163 152 92 166 89 136 131 121 124 123 124 118 114 105 121 108 111 115 114 112 113 118 100 98 109 97 98 97 96 104 104 101 98 95 93 89 80 61
143 117 214 219 136 203 186 85 116 112 158 133 128 149 172 177 128 104 125 128 130 132 129 125 119 114 121 122 116 122 132 126 122 106 106 124 128 105 107 102 105 107 105 103 101 98 88 77 59
334 83 207 219 161 168 158 110 40 119 113 56 28 146 167 150 125 122 120 126 129 142 137 144 147 135 130 129 138 129 124 125 129 135 140 137 131 101 79 113 116 121 121 118 116 112 102 71 41
127 139 224 235 168 152 164 127 145 111 123 64 58 53 115 129 147 156 153 149 152 157 150 158 158 154 149 142 134 132 136 142 152 148 157 138 150 135 118 122 129 133 137 147 152 149 159 216 306
201 197 289 33 85 124 156 120 163 126 203 185 165 146 147 147 170 168 174 159 163 162 162 165 165 158 155 148 150 147 147 155 161 168 165 160 140 134 138 139 141 154 169 211 119 336 131 144 135
226 239 111 281 55 85 152 139 152 137 196 159 161 157 155 169 186 185 172 181 178 156 182 174 165 162 153 153 160 169 168 181 185 191 176 164 142 151 162 166 183 182 191 214 202 180 153 102 115
238 233 141 127 87 55 118 141 178 175 177 120 142 153 163 175 188 203 184 170 182 188 166 188 177 161 160 160 167 178 181 176 188 191 172 164 156 174 177 192 193 205 191 192 174 181 177 168 181
210 294 151 136 139 41 127 106 117 225 145 122 154 168 169 179 190 187 195 198 186 188 180 173 191 172 155 175 173 182 176 180 175 182 188 180 177 177 180 181 188 195 190 190 183 184 184 194 185
149 145 323 161 156 201 109 296 215 193 152 152 168 176 177 187 190 201 198 200 186 190 185 174 182 188 177 177 184 180 182 176 174 184 188 197 192 190 176 179 183 196 193 186 174 181 171 175 219
135 167 157 220 138 235 147 255 231 222 178 195 202 187 188 189 194 197 204 204 189 176 184 183 178 190 179 192 177 178 192 185 186 182 182 197 195 192 183 184 191 196 182 178 180 186 207 216 204
219 194 170 171 173 146 166 233 246 244 192 215 207 204 199 197 198 199 201 194 185 181 179 188 182 188 191 188 194 190 188 187 196 190 187 195 194 192 177 188 198 180 180 188 198 214 187 208 224
155 168 186 187 195 167 178 237 259 288 190 214 206 216 206 205 205 198 195 192 184 186 181 182 188 181 187 189 184 180 196 217 194 201 195 193 198 193 189 189 191 180 177 195 191 191 213 189 193
164 178 188 220 182 147 198 199 238 251 251 228 237 227 219 207 217 201 194 189 184 183 182 185 182 192 177 182 182 197 207 211 212 208 203 196 193 197 191 190 187 186 185 199 196 175 189 237 192
188 186 188 25 125 131 211 232 227 225 221 211 216 230 226 225 211 209 197 187 183 185 187 182 188 190 192 188 194 198 203 212 208 206 205 202 195 197 199 190 194 186 183 200 206 179 169 210 189
217 193 200 145 213 345 99 272 216 235 222 199 227 224 212 210 220 214 206 195 190 183 185 191 190 194 196 191 188 185 163 177 185 210 215 209 196 197 197 197 192 196 195 203 200 189 171 191 211
198 218 156 146 152 196 166 271 292 218 232 227 222 212 215 214 223 210 203 208 199 198 187 192 191 192 196 191 189 198 206 205 209 207 209 207 200 200 200 200 199 201 200 207 209 201 190 147 185
162 111 110 100 103 100 224 91 272 270 254 246 224 222 228 208 207 215 211 209 214 199 193 192 192 190 192 192 196 198 212 217 211 205 206 207 204 202 201 202 200 201 204 211 201 186 195 191 162
143 100 52 68 104 254 198 159 261 210 220 233 225 226 220 222 221 228 231 204 207 201 208 194 192 201 195 196 200 202 209 209 205 205 206 208 206 204 207 203 201 205 205 207 205 204 202 202 209
147 140 167 166 152 230 253 187 234 220 205 173 147 191 205 209 206 227 232 227 214 192 195 192 195 209 199 200 204 208 212 210 209 207 208 202 203 210 216 203 204 206 208 212 206 201 207 206 208
173 182 164 163 168 208 287 225 250 219 236 214 187 175 176 122 160 164 175 183 218 214 203 196 198 216 206 203 210 213 217 216 217 214 212 209 208 210 207 207 211 212 209 210 204 201 205 202 211
183 190 135 92 28 100 210 283 306 256 232 191 182 163 206 202 192 208 191 184 241 221 212 204 202 214 215 212 216 218 214 217 217 219 214 211 213 212 205 202 204 208 206 204 198 201 201 197 205
180 151 127 14 152 236 266 262 230 210 230 216 205 192 217 211 156 110 138 206 246 235 235 215 219 221 223 221 220 228 227 224 226 224 222 221 223 217 211 208 208 208 209 207 199 203 202 194 193
153 182 161 119 153 156 165 250 214 194 200 216 193 187 167 156 166 177 191 201 221 262 244 239 242 242 251 246 246 238 237 228 220 224 222 221 220 210 207 206 205 207 209 204 204 199 184 185 174
184 188 179 177 193 205 167 268 251 201 204 155 168 157 157 163 182 188 190 201 225 245 258 253 259 254 252 253 249 243 239 241 247 240 236 231 230 220 215 211 209 205 201 193 200 190 184 180 174